QPF
0.00 0.00 0.01 0.01 0.01 0.02 0.02 0.01 0.01 0.01 0.00 0.00 0.00 0.00 0.01 0.01 0.01 0.00 0.00 0.00 0.00 0.00 0.01 0.01 0.02 0.03 0.03 0.03 0.02 0.02 0.02 0.03 0.02 0.03 0.03 0.03 0.03 0.03
0.00 0.00 0.00 0.00 0.00 0.00 0.01 0.01 0.01 0.01 0.01 0.00 0.00 0.00 0.00 0.01 0.01 0.01 0.01 0.01 0.01 0.01 0.01 0.02 0.02 0.02 0.02 0.02 0.01 0.01 0.01 0.02 0.02 0.03 0.03 0.03 0.03 0.03
0.01 0.00 0.00 0.00 0.00 0.00 0.00 0.00 0.00 0.01 0.01 0.00 0.00 0.01 0.01 0.01 0.01 0.02 0.02 0.02 0.02 0.02 0.02 0.02 0.02 0.01 0.01 0.01 0.01 0.01 0.01 0.01 0.01 0.02 0.03 0.03 0.03 0.03
0.02 0.01 0.01 0.01 0.01 0.01 0.00 0.00 0.00 0.00 0.01 0.01 0.01 0.01 0.02 0.02 0.01 0.02 0.02 0.02 0.02 0.03 0.03 0.03 0.02 0.01 0.01 0.01 0.01 0.01 0.01 0.01 0.01 0.02 0.02 0.02 0.03 0.03
0.02 0.02 0.01 0.01 0.01 0.01 0.01 0.01 0.01 0.00 0.01 0.01 0.01 0.01 0.01 0.02 0.01 0.02 0.02 0.02 0.02 0.03 0.03 0.03 0.02 0.02 0.01 0.01 0.01 0.01 0.01 0.01 0.02 0.02 0.02 0.02 0.02 0.03
0.02 0.01 0.01 0.01 0.01 0.01 0.01 0.01 0.01 0.01 0.01 0.01 0.01 0.01 0.01 0.01 0.01 0.01 0.02 0.02 0.02 0.02 0.02 0.02 0.02 0.01 0.01 0.01 0.01 0.01 0.01 0.01 0.02 0.02 0.02 0.01 0.02 0.02
0.01 0.01 0.00 0.01 0.01 0.01 0.01 0.01 0.01 0.01 0.01 0.01 0.01 0.01 0.01 0.01 0.01 0.01 0.01 0.01 0.02 0.02 0.02 0.01 0.01 0.00 0.00 0.00 0.01 0.01 0.01 0.01 0.01 0.01 0.02 0.02 0.02 0.02
0.01 0.01 0.00 0.00 0.00 0.00 0.01 0.01 0.01 0.01 0.01 0.01 0.01 0.01 0.01 0.01 0.01 0.01 0.00 0.01 0.01 0.01 0.01 0.01 0.01 0.01 0.01 0.01 0.01 0.01 0.01 0.01 0.01 0.01 0.01 0.02 0.02 0.03
0.02 0.01 0.00 0.00 0.00 0.00 0.00 0.00 0.00 0.00 0.00 0.00 0.01 0.00 0.00 0.01 0.01 0.01 0.01 0.01 0.00 0.01 0.01 0.01 0.00 0.00 0.00 0.01 0.01 0.01 0.02 0.01 0.01 0.01 0.01 0.02 0.02 0.03
0.02 0.01 0.00 0.00 0.00 0.00 0.00 0.00 0.00 0.00 0.00 0.00 0.00 0.00 0.01 0.01 0.01 0.01 0.01 0.01 0.00 0.00 0.01 0.01 0.00 0.01 0.01 0.01 0.01 0.01 0.01 0.01 0.01 0.01 0.01 0.02 0.02 0.03
0.02 0.02 0.01 0.00 0.01 0.01 0.01 0.00 0.00 0.00 0.00 0.00 0.00 0.00 0.01 0.01 0.01 0.01 0.01 0.01 0.01 0.01 0.01 0.01 0.01 0.01 0.01 0.02 0.01 0.01 0.01 0.01 0.02 0.02 0.02 0.02 0.02 0.03
0.02 0.02 0.01 0.01 0.00 0.01 0.01 0.01 0.00 0.00 0.00 0.00 0.00 0.00 0.00 0.01 0.01 0.01 0.01 0.01 0.01 0.01 0.00 0.01 0.01 0.02 0.02 0.02 0.02 0.01 0.01 0.01 0.01 0.02 0.02 0.02 0.02 0.02
0.01 0.01 0.01 0.01 0.01 0.01 0.01 0.01 0.01 0.00 0.00 0.00 0.00 0.00 0.00 0.00 0.00 0.00 0.00 0.01 0.01 0.01 0.00 0.01 0.02 0.02 0.02 0.02 0.02 0.02 0.01 0.01 0.01 0.01 0.02 0.03 0.03 0.04
0.02 0.01 0.01 0.01 0.01 0.01 0.01 0.01 0.01 0.01 0.01 0.01 0.01 0.01 0.01 0.00 0.00 0.00 0.01 0.01 0.01 0.01 0.01 0.02 0.03 0.03 0.02 0.02 0.02 0.02 0.02 0.02 0.02 0.02 0.02 0.03 0.03 0.04
0.01 0.02 0.01 0.01 0.01 0.01 0.01 0.01 0.01 0.01 0.01 0.01 0.01 0.01 0.00 0.00 0.01 0.01 0.01 0.02 0.02 0.02 0.02 0.03 0.04 0.04 0.03 0.02 0.02 0.02 0.02 0.02 0.01 0.02 0.02 0.03 0.03 0.03
0.01 0.01 0.02 0.01 0.01 0.00 0.00 0.00 0.00 0.01 0.01 0.01 0.01 0.01 0.01 0.01 0.01 0.01 0.01 0.02 0.02 0.01 0.02 0.03 0.03 0.03 0.03 0.03 0.02 0.02 0.02 0.02 0.02 0.02 0.02 0.02 0.02 0.02
0.01 0.01 0.01 0.01 0.01 0.01 0.01 0.01 0.00 0.01 0.01 0.01 0.01 0.01 0.01 0.01 0.01 0.01 0.01 0.02 0.02 0.01 0.01 0.02 0.02 0.02 0.02 0.02 0.02 0.02 0.02 0.02 0.02 0.02 0.02 0.02 0.01 0.02
0.01 0.01 0.01 0.01 0.01 0.01 0.01 0.01 0.01 0.01 0.01 0.01 0.01 0.01 0.01 0.01 0.01 0.01 0.01 0.02 0.02 0.01 0.01 0.01 0.01 0.02 0.02 0.02 0.02 0.02 0.02 0.02 0.02 0.02 0.02 0.02 0.02 0.01
0.01 0.01 0.01 0.01 0.01 0.01 0.01 0.01 0.01 0.01 0.01 0.01 0.01 0.01 0.01 0.01 0.01 0.01 0.01 0.01 0.01 0.01 0.01 0.01 0.02 0.02 0.03 0.02 0.02 0.02 0.02 0.02 0.01 0.01 0.02 0.02 0.02 0.02
0.00 0.01 0.01 0.01 0.01 0.01 0.01 0.01 0.01 0.01 0.01 0.01 0.01 0.01 0.01 0.01 0.01 0.01 0.01 0.01 0.01 0.01 0.01 0.01 0.02 0.02 0.02 0.02 0.02 0.02 0.02 0.02 0.02 0.02 0.02 0.01 0.01 0.02
0.01 0.01 0.01 0.01 0.01 0.01 0.01 0.01 0.01 0.01 0.01 0.01 0.01 0.01 0.01 0.01 0.01 0.01 0.01 0.01 0.01 0.01 0.01 0.01 0.01 0.01 0.01 0.01 0.02 0.02 0.02 0.02 0.02 0.01 0.01 0.02 0.02 0.02
0.01 0.01 0.01 0.01 0.01 0.01 0.01 0.01 0.01 0.02 0.01 0.01 0.01 0.01 0.01 0.01 0.01 0.01 0.01 0.01 0.01 0.01 0.01 0.01 0.01 0.01 0.01 0.02 0.02 0.02 0.02 0.02 0.02 0.01 0.01 0.02 0.02 0.02
0.01 0.01 0.01 0.01 0.01 0.01 0.02 0.02 0.02 0.02 0.01 0.01 0.02 0.02 0.02 0.02 0.01 0.01 0.01 0.01 0.01 0.01 0.01 0.01 0.01 0.01 0.01 0.01 0.01 0.01 0.02 0.02 0.02 0.02 0.02 0.02 0.02 0.02
MSLP
1020.19 1020.14 1020.04 1019.88 1019.65 1019.34 1018.96 1018.54 1018.10 1017.66 1017.25 1016.92 1016.69 1016.59 1016.63 1016.82 1017.15 1017.61 1018.19 1018.85 1019.57 1020.32 1021.07 1021.79 1022.46 1023.09 1023.65 1024.16 1024.61 1024.99 1025.33 1025.62 1025.86 1026.05 1026.20 1026.31 1026.38 1026.41
1020.30 1020.35 1020.36 1020.30 1020.15 1019.92 1019.61 1019.23 1018.80 1018.35 1017.91 1017.51 1017.20 1017.00 1016.93 1017.02 1017.26 1017.64 1018.16 1018.79 1019.49 1020.25 1021.02 1021.77 1022.49 1023.16 1023.77 1024.30 1024.77 1025.18 1025.52 1025.81 1026.05 1026.25 1026.39 1026.51 1026.58 1026.62
1020.20 1020.34 1020.45 1020.49 1020.45 1020.33 1020.11 1019.81 1019.45 1019.03 1018.60 1018.19 1017.84 1017.58 1017.43 1017.43 1017.59 1017.90 1018.35 1018.93 1019.61 1020.35 1021.13 1021.90 1022.64 1023.33 1023.96 1024.51 1024.98 1025.38 1025.72 1026.00 1026.23 1026.42 1026.57 1026.69 1026.77 1026.82
1019.92 1020.14 1020.34 1020.48 1020.56 1020.55 1020.45 1020.27 1020.00 1019.67 1019.30 1018.91 1018.56 1018.28 1018.09 1018.03 1018.12 1018.36 1018.75 1019.28 1019.93 1020.65 1021.41 1022.18 1022.92 1023.60 1024.22 1024.76 1025.22 1025.60 1025.92 1026.18 1026.40 1026.58 1026.73 1026.86 1026.95 1027.03
1019.53 1019.81 1020.07 1020.30 1020.48 1020.59 1020.63 1020.57 1020.43 1020.20 1019.92 1019.61 1019.30 1019.03 1018.84 1018.75 1018.79 1018.98 1019.32 1019.81 1020.41 1021.09 1021.83 1022.57 1023.29 1023.96 1024.55 1025.06 1025.48 1025.83 1026.11 1026.35 1026.55 1026.72 1026.88 1027.02 1027.14 1027.24
1019.06 1019.38 1019.69 1019.99 1020.26 1020.47 1020.62 1020.69 1020.68 1020.59 1020.42 1020.21 1019.97 1019.75 1019.58 1019.49 1019.51 1019.68 1019.98 1020.42 1020.98 1021.63 1022.32 1023.03 1023.71 1024.34 1024.89 1025.36 1025.74 1026.04 1026.29 1026.49 1026.67 1026.84 1027.00 1027.16 1027.32 1027.46
1018.56 1018.89 1019.24 1019.58 1019.91 1020.20 1020.45 1020.63 1020.75 1020.78 1020.73 1020.63 1020.48 1020.33 1020.21 1020.15 1020.18 1020.33 1020.61 1021.02 1021.55 1022.16 1022.81 1023.48 1024.12 1024.71 1025.21 1025.63 1025.96 1026.22 1026.43 1026.60 1026.76 1026.92 1027.10 1027.28 1027.47 1027.64
1018.03 1018.37 1018.72 1019.09 1019.45 1019.80 1020.12 1020.39 1020.60 1020.75 1020.82 1020.82 1020.78 1020.71 1020.65 1020.63 1020.69 1020.85 1021.12 1021.51 1022.01 1022.59 1023.22 1023.85 1024.45 1024.99 1025.45 1025.83 1026.11 1026.34 1026.51 1026.66 1026.81 1026.97 1027.15 1027.35 1027.57 1027.77
1017.48 1017.82 1018.16 1018.53 1018.91 1019.28 1019.65 1019.98 1020.27 1020.51 1020.67 1020.78 1020.83 1020.84 1020.85 1020.89 1020.99 1021.16 1021.44 1021.82 1022.30 1022.86 1023.45 1024.05 1024.62 1025.13 1025.56 1025.91 1026.17 1026.37 1026.52 1026.66 1026.80 1026.96 1027.15 1027.37 1027.60 1027.83
1016.90 1017.22 1017.55 1017.91 1018.29 1018.67 1019.06 1019.44 1019.79 1020.09 1020.33 1020.52 1020.65 1020.74 1020.82 1020.91 1021.04 1021.24 1021.52 1021.90 1022.37 1022.90 1023.47 1024.05 1024.60 1025.09 1025.51 1025.84 1026.10 1026.29 1026.44 1026.58 1026.73 1026.89 1027.09 1027.32 1027.56 1027.80
1016.25 1016.56 1016.89 1017.24 1017.61 1018.00 1018.41 1018.81 1019.19 1019.54 1019.85 1020.10 1020.30 1020.45 1020.59 1020.72 1020.88 1021.10 1021.39 1021.76 1022.21 1022.72 1023.27 1023.83 1024.37 1024.86 1025.28 1025.62 1025.89 1026.09 1026.26 1026.42 1026.57 1026.75 1026.96 1027.19 1027.44 1027.68
1015.54 1015.85 1016.18 1016.53 1016.90 1017.29 1017.71 1018.13 1018.54 1018.93 1019.28 1019.59 1019.84 1020.04 1020.22 1020.39 1020.57 1020.79 1021.07 1021.43 1021.86 1022.35 1022.88 1023.42 1023.95 1024.44 1024.88 1025.24 1025.54 1025.78 1025.98 1026.16 1026.34 1026.54 1026.76 1026.99 1027.24 1027.49
1014.76 1015.09 1015.42 1015.78 1016.16 1016.57 1016.99 1017.44 1017.88 1018.30 1018.69 1019.03 1019.32 1019.57 1019.77 1019.96 1020.15 1020.37 1020.64 1020.97 1021.37 1021.83 1022.34 1022.86 1023.39 1023.89 1024.34 1024.73 1025.07 1025.35 1025.59 1025.81 1026.03 1026.25 1026.48 1026.73 1026.98 1027.23
1013.94 1014.27 1014.63 1015.00 1015.39 1015.82 1016.27 1016.74 1017.21 1017.66 1018.09 1018.47 1018.79 1019.07 1019.29 1019.50 1019.69 1019.90 1020.15 1020.44 1020.81 1021.23 1021.70 1022.21 1022.72 1023.23 1023.70 1024.13 1024.51 1024.84 1025.13 1025.39 1025.64 1025.89 1026.14 1026.40 1026.65 1026.90
1013.08 1013.43 1013.79 1014.19 1014.61 1015.06 1015.54 1016.03 1016.53 1017.02 1017.47 1017.89 1018.24 1018.55 1018.79 1019.01 1019.20 1019.39 1019.62 1019.88 1020.21 1020.59 1021.03 1021.51 1022.01 1022.52 1023.01 1023.47 1023.89 1024.26 1024.60 1024.91 1025.20 1025.47 1025.74 1026.00 1026.26 1026.51
1012.20 1012.56 1012.95 1013.35 1013.80 1014.27 1014.78 1015.30 1015.83 1016.34 1016.83 1017.28 1017.67 1017.99 1018.26 1018.49 1018.68 1018.87 1019.08 1019.32 1019.61 1019.95 1020.36 1020.81 1021.30 1021.81 1022.31 1022.79 1023.25 1023.66 1024.04 1024.39 1024.71 1025.00 1025.28 1025.56 1025.82 1026.07
1011.32 1011.69 1012.08 1012.51 1012.97 1013.46 1013.98 1014.53 1015.08 1015.62 1016.14 1016.62 1017.03 1017.39 1017.69 1017.93 1018.14 1018.33 1018.52 1018.75 1019.01 1019.34 1019.72 1020.15 1020.62 1021.13 1021.64 1022.14 1022.62 1023.07 1023.48 1023.86 1024.20 1024.51 1024.80 1025.07 1025.33 1025.58
1010.45 1010.82 1011.22 1011.65 1012.12 1012.62 1013.16 1013.72 1014.29 1014.85 1015.39 1015.89 1016.34 1016.73 1017.05 1017.32 1017.55 1017.75 1017.95 1018.17 1018.43 1018.74 1019.11 1019.53 1020.00 1020.50 1021.02 1021.54 1022.04 1022.52 1022.96 1023.35 1023.71 1024.03 1024.32 1024.59 1024.83 1025.06
1009.59 1009.97 1010.37 1010.81 1011.28 1011.79 1012.34 1012.90 1013.48 1014.05 1014.61 1015.13 1015.60 1016.01 1016.36 1016.66 1016.91 1017.14 1017.36 1017.59 1017.86 1018.17 1018.54 1018.96 1019.43 1019.94 1020.47 1021.00 1021.53 1022.02 1022.48 1022.90 1023.27 1023.59 1023.87 1024.12 1024.35 1024.56
1008.76 1009.15 1009.57 1010.01 1010.49 1011.00 1011.55 1012.11 1012.69 1013.27 1013.83 1014.36 1014.85 1015.28 1015.65 1015.98 1016.26 1016.51 1016.75 1017.00 1017.29 1017.61 1017.99 1018.42 1018.91 1019.43 1019.98 1020.53 1021.08 1021.60 1022.08 1022.51 1022.88 1023.21 1023.49 1023.72 1023.93 1024.12
1007.96 1008.38 1008.82 1009.28 1009.77 1010.29 1010.83 1011.40 1011.97 1012.55 1013.10 1013.63 1014.12 1014.57 1014.96 1015.30 1015.60 1015.88 1016.14 1016.42 1016.73 1017.07 1017.47 1017.92 1018.42 1018.97 1019.54 1020.12 1020.69 1021.23 1021.73 1022.18 1022.57 1022.90 1023.18 1023.40 1023.59 1023.76
1007.22 1007.67 1008.14 1008.63 1009.14 1009.67 1010.22 1010.78 1011.35 1011.92 1012.47 1012.99 1013.48 1013.92 1014.31 1014.67 1014.98 1015.27 1015.56 1015.86 1016.18 1016.55 1016.97 1017.44 1017.96 1018.53 1019.12 1019.73 1020.33 1020.90 1021.43 1021.90 1022.31 1022.66 1022.94 1023.16 1023.34 1023.49
1006.53 1007.03 1007.54 1008.06 1008.60 1009.15 1009.71 1010.27 1010.84 1011.40 1011.94 1012.45 1012.93 1013.36 1013.75 1014.10 1014.42 1014.72 1015.02 1015.33 1015.66 1016.05 1016.48 1016.97 1017.51 1018.09 1018.71 1019.34 1019.97 1020.57 1021.12 1021.62 1022.06 1022.42 1022.71 1022.94 1023.12 1023.27
Thickness
5520 5518 5516 5515 5513 5512 5511 5510 5511 5515 5518 5516 5511 5509 5506 5505 5503 5502 5502 5500 5499 5497 5496 5495 5495 5494 5494 5494 5494 5494 5494 5495 5496 5497 5500 5502 5504 5506
5511 5509 5507 5506 5504 5502 5501 5501 5500 5501 5504 5505 5502 5499 5496 5495 5493 5493 5492 5491 5489 5488 5486 5486 5486 5485 5485 5484 5484 5484 5484 5485 5485 5486 5489 5492 5493 5496
5502 5500 5499 5497 5495 5494 5492 5492 5491 5490 5492 5493 5490 5488 5487 5485 5484 5483 5482 5481 5481 5479 5477 5477 5477 5476 5475 5475 5475 5475 5475 5475 5476 5476 5478 5480 5483 5486
5493 5492 5490 5488 5487 5485 5484 5483 5482 5481 5481 5481 5480 5478 5476 5474 5474 5472 5472 5471 5471 5470 5468 5468 5467 5468 5467 5467 5466 5466 5466 5466 5467 5467 5468 5470 5472 5475
5485 5483 5481 5479 5478 5476 5475 5473 5472 5470 5469 5469 5469 5467 5465 5464 5463 5462 5461 5461 5461 5460 5460 5459 5459 5459 5458 5458 5458 5458 5458 5458 5458 5459 5459 5460 5462 5465
5474 5473 5472 5470 5468 5467 5465 5463 5462 5460 5459 5458 5458 5457 5455 5453 5452 5452 5452 5452 5451 5451 5451 5450 5450 5450 5449 5449 5449 5449 5449 5449 5450 5450 5450 5451 5453 5454
5465 5463 5462 5459 5457 5456 5455 5453 5452 5451 5449 5449 5448 5447 5446 5444 5442 5442 5442 5442 5443 5442 5442 5443 5443 5443 5442 5441 5441 5441 5441 5441 5442 5442 5442 5443 5444 5446
5456 5454 5452 5449 5447 5446 5445 5444 5442 5441 5441 5439 5439 5439 5438 5435 5433 5432 5431 5432 5434 5433 5431 5434 5434 5435 5434 5434 5434 5433 5433 5433 5433 5434 5434 5435 5436 5437
5447 5445 5443 5441 5439 5438 5437 5435 5433 5431 5430 5430 5430 5430 5428 5426 5424 5423 5422 5421 5422 5422 5420 5425 5425 5426 5426 5426 5425 5425 5425 5425 5425 5426 5426 5427 5428 5429
5437 5436 5434 5433 5431 5429 5428 5427 5426 5424 5422 5420 5420 5419 5417 5415 5414 5413 5412 5412 5412 5412 5410 5413 5416 5417 5417 5418 5418 5418 5417 5417 5418 5418 5419 5419 5420 5421
5428 5426 5425 5424 5422 5420 5419 5419 5418 5416 5413 5411 5410 5408 5406 5405 5403 5403 5403 5402 5405 5405 5403 5402 5406 5407 5409 5411 5411 5410 5410 5410 5410 5411 5412 5412 5413 5414
5419 5418 5416 5415 5413 5411 5410 5410 5409 5408 5405 5403 5401 5399 5398 5397 5395 5393 5393 5393 5394 5396 5396 5393 5394 5395 5399 5403 5403 5403 5403 5404 5404 5404 5405 5405 5406 5407
5411 5410 5408 5406 5404 5403 5402 5402 5400 5398 5396 5394 5393 5392 5390 5389 5387 5385 5384 5383 5384 5386 5386 5384 5385 5385 5386 5391 5394 5395 5395 5396 5396 5397 5397 5398 5398 5398
5403 5402 5400 5398 5396 5395 5394 5393 5390 5388 5387 5386 5385 5384 5382 5381 5379 5378 5377 5376 5376 5376 5377 5375 5376 5377 5378 5381 5384 5387 5386 5387 5388 5389 5390 5391 5391 5391
5394 5393 5391 5390 5388 5387 5386 5384 5381 5380 5378 5377 5376 5375 5373 5372 5370 5370 5369 5369 5369 5369 5369 5369 5369 5370 5371 5372 5374 5376 5378 5380 5380 5381 5382 5383 5384 5385
5385 5384 5382 5380 5379 5379 5377 5375 5373 5371 5369 5368 5367 5365 5364 5363 5363 5362 5362 5362 5363 5363 5362 5362 5362 5363 5364 5365 5366 5368 5369 5370 5372 5373 5374 5376 5377 5377
5377 5375 5374 5373 5372 5370 5368 5366 5363 5362 5360 5359 5358 5357 5357 5356 5356 5355 5355 5355 5355 5356 5356 5355 5355 5356 5357 5358 5359 5361 5362 5363 5363 5364 5366 5369 5370 5370
5369 5368 5367 5366 5365 5363 5360 5358 5356 5354 5353 5351 5350 5349 5349 5349 5349 5349 5348 5348 5348 5349 5349 5349 5349 5350 5352 5353 5352 5353 5355 5356 5356 5357 5358 5360 5363 5364
5362 5362 5361 5359 5357 5355 5353 5351 5349 5348 5346 5344 5343 5343 5343 5343 5343 5343 5343 5343 5343 5343 5342 5342 5342 5342 5345 5348 5349 5346 5347 5348 5349 5350 5351 5352 5355 5358
5356 5355 5354 5352 5350 5349 5347 5345 5343 5341 5340 5339 5338 5338 5338 5337 5338 5338 5338 5337 5337 5337 5337 5336 5335 5336 5337 5339 5340 5340 5339 5340 5342 5343 5345 5346 5348 5350
5350 5348 5347 5346 5344 5343 5341 5339 5337 5336 5335 5334 5334 5333 5333 5333 5332 5332 5332 5331 5331 5331 5332 5331 5330 5329 5328 5329 5331 5335 5335 5334 5334 5335 5337 5340 5343 5346
5343 5342 5341 5339 5338 5337 5335 5333 5332 5331 5330 5330 5329 5329 5328 5328 5327 5327 5327 5327 5327 5326 5326 5325 5324 5324 5324 5325 5327 5328 5330 5330 5330 5330 5331 5333 5334 5338
5337 5335 5334 5333 5332 5331 5330 5328 5328 5327 5327 5326 5325 5325 5324 5323 5323 5322 5322 5322 5321 5321 5320 5320 5320 5320 5320 5321 5322 5322 5323 5325 5327 5328 5329 5330 5330 5331